Time,TemperatureF,DewpointF,PressureIn,WindDirection,WindDirectionDegrees,WindSpeedMPH,WindSpeedGustMPH,Humidity,HourlyPrecipIn,Conditions,Clouds,dailyrainin,SoftwareType,DateUTC
2013-03-15 00:00:00,17.9,8.0,29.42,NE,45,2.1,12.4,64,0.00,,,0.01,Rainwise IP-100,2013-03-15 04:00:00,
2013-03-15 00:01:00,17.9,8.0,29.42,NNW,337,4.0,12.4,64,0.00,,,0.00,Rainwise IP-100,2013-03-15 04:01:00,
2013-03-15 00:06:00,17.9,8.0,29.42,North,360,7.0,12.4,64,0.00,,,0.00,Rainwise IP-100,2013-03-15 04:06:00,
2013-03-15 00:11:00,17.8,11.0,29.42,North,360,12.4,12.6,65,0.00,,,0.00,Rainwise IP-100,2013-03-15 04:11:00,
2013-03-15 00:16:00,17.8,11.0,29.42,NNW,337,4.9,14.9,65,0.00,,,0.00,Rainwise IP-100,2013-03-15 04:16:00,
2013-03-15 00:21:00,17.8,11.0,29.43,North,360,10.3,14.7,65,0.00,,,0.00,Rainwise IP-100,2013-03-15 04:21:00,
2013-03-15 00:26:00,17.7,11.0,29.43,NNE,22,8.4,14.9,66,0.00,,,0.00,Rainwise IP-100,2013-03-15 04:26:00,
2013-03-15 00:31:00,17.7,11.0,29.42,NNW,337,4.7,11.7,66,0.00,,,0.00,Rainwise IP-100,2013-03-15 04:31:00,
2013-03-15 00:36:00,17.7,11.0,29.42,NNE,22,5.8,12.1,66,0.00,,,0.00,Rainwise IP-100,2013-03-15 04:36:00,
2013-03-15 00:42:00,17.8,11.0,29.43,NNE,22,10.0,11.4,66,0.00,,,0.00,Rainwise IP-100,2013-03-15 04:42:00,
2013-03-15 00:47:00,17.8,11.0,29.43,NE,45,6.1,17.5,66,0.00,,,0.00,Rainwise IP-100,2013-03-15 04:47:00,
2013-03-15 00:52:00,17.8,11.0,29.43,NW,315,3.7,11.2,66,0.00,,,0.00,Rainwise IP-100,2013-03-15 04:52:00,
2013-03-15 00:57:00,17.8,11.0,29.43,NNW,337,4.9,9.6,66,0.00,,,0.00,Rainwise IP-100,2013-03-15 04:57:00,
2013-03-15 01:02:00,17.8,11.0,29.43,NE,45,4.0,10.5,66,0.00,,,0.00,Rainwise IP-100,2013-03-15 05:02:00,
2013-03-15 01:07:00,17.8,11.0,29.43,NNE,22,2.3,9.1,66,0.00,,,0.00,Rainwise IP-100,2013-03-15 05:07:00,
2013-03-15 01:12:00,17.7,11.0,29.43,North,360,4.9,12.4,66,0.00,,,0.00,Rainwise IP-100,2013-03-15 05:12:00,
2013-03-15 01:17:00,17.7,11.0,29.43,NNE,22,5.6,11.7,66,0.00,,,0.00,Rainwise IP-100,2013-03-15 05:17:00,
2013-03-15 01:22:00,17.6,11.0,29.43,NNW,337,4.9,12.8,65,0.00,,,0.00,Rainwise IP-100,2013-03-15 05:22:00,
2013-03-15 01:27:00,17.6,8.0,29.43,NNE,22,12.6,18.0,64,0.00,,,0.00,Rainwise IP-100,2013-03-15 05:27:00,
2013-03-15 01:32:00,17.5,8.0,29.43,North,360,5.6,15.2,63,0.00,,,0.00,Rainwise IP-100,2013-03-15 05:32:00,
2013-03-15 01:37:00,17.3,8.0,29.43,NNE,22,6.1,13.3,63,0.00,,,0.00,Rainwise IP-100,2013-03-15 05:37:00,
2013-03-15 01:42:00,17.2,8.0,29.44,NNE,22,5.1,18.4,63,0.00,,,0.00,Rainwise IP-100,2013-03-15 05:42:00,
2013-03-15 01:47:00,17.1,8.0,29.44,NNW,337,4.9,13.3,63,0.00,,,0.00,Rainwise IP-100,2013-03-15 05:47:00,
2013-03-15 01:53:00,16.9,8.0,29.44,North,360,11.0,13.3,63,0.00,,,0.00,Rainwise IP-100,2013-03-15 05:53:00,
2013-03-15 01:58:00,16.9,8.0,29.44,NNE,22,6.1,15.4,63,0.00,,,0.00,Rainwise IP-100,2013-03-15 05:58:00,
2013-03-15 02:03:00,16.8,8.0,29.44,North,360,2.3,14.2,63,0.00,,,0.00,Rainwise IP-100,2013-03-15 06:03:00,
2013-03-15 02:08:00,16.7,8.0,29.44,NNW,337,14.9,17.3,64,0.00,,,0.00,Rainwise IP-100,2013-03-15 06:08:00,
2013-03-15 02:13:00,16.6,8.0,29.44,NNW,337,1.9,15.4,63,0.00,,,0.00,Rainwise IP-100,2013-03-15 06:13:00,
2013-03-15 02:18:00,16.6,8.0,29.44,NNE,22,4.2,13.3,63,0.00,,,0.00,Rainwise IP-100,2013-03-15 06:18:00,
2013-03-15 02:23:00,16.5,8.0,29.43,NW,315,6.1,11.2,63,0.00,,,0.00,Rainwise IP-100,2013-03-15 06:23:00,
2013-03-15 02:28:00,16.4,8.0,29.43,North,360,4.4,12.6,63,0.00,,,0.00,Rainwise IP-100,2013-03-15 06:28:00,
2013-03-15 02:33:00,16.4,8.0,29.44,North,360,2.8,8.9,63,0.00,,,0.00,Rainwise IP-100,2013-03-15 06:33:00,
2013-03-15 02:38:00,16.3,8.0,29.44,NNW,337,5.6,6.1,63,0.00,,,0.00,Rainwise IP-100,2013-03-15 06:38:00,
2013-03-15 02:43:00,16.2,8.0,29.44,NNE,22,8.4,8.4,63,0.00,,,0.00,Rainwise IP-100,2013-03-15 06:43:00,
2013-03-15 02:48:00,16.1,8.0,29.44,ENE,67,1.6,11.2,62,0.00,,,0.00,Rainwise IP-100,2013-03-15 06:48:00,
2013-03-15 02:53:00,16.1,8.0,29.44,NNE,22,2.8,10.0,62,0.00,,,0.00,Rainwise IP-100,2013-03-15 06:53:00,
2013-03-15 02:58:00,16.0,8.0,29.44,NNE,22,2.1,10.5,62,0.00,,,0.00,Rainwise IP-100,2013-03-15 06:58:00,
2013-03-15 03:03:00,16.1,8.0,29.44,NNE,22,1.2,7.5,62,0.00,,,0.00,Rainwise IP-100,2013-03-15 07:03:00,
2013-03-15 03:09:00,16.1,8.0,29.43,NNE,22,7.0,7.2,62,0.00,,,0.00,Rainwise IP-100,2013-03-15 07:09:00,
2013-03-15 03:14:00,16.0,4.0,29.43,NNW,337,5.4,10.7,61,0.00,,,0.00,Rainwise IP-100,2013-03-15 07:14:00,
2013-03-15 03:19:00,15.9,4.0,29.43,North,360,3.0,7.7,61,0.00,,,0.00,Rainwise IP-100,2013-03-15 07:19:00,
2013-03-15 03:24:00,15.9,4.0,29.43,NNE,22,3.5,9.6,61,0.00,,,0.00,Rainwise IP-100,2013-03-15 07:24:00,
2013-03-15 03:29:00,15.9,4.0,29.43,NNW,337,2.8,7.9,61,0.00,,,0.00,Rainwise IP-100,2013-03-15 07:29:00,
2013-03-15 03:34:00,15.7,4.0,29.43,NNW,337,2.1,4.7,61,0.00,,,0.00,Rainwise IP-100,2013-03-15 07:34:00,
2013-03-15 03:39:00,15.5,8.0,29.43,NNW,337,4.2,4.9,62,0.00,,,0.00,Rainwise IP-100,2013-03-15 07:39:00,
2013-03-15 03:44:00,15.4,8.0,29.42,NNW,337,0.0,4.9,62,0.00,,,0.00,Rainwise IP-100,2013-03-15 07:44:00,
2013-03-15 03:49:00,15.2,8.0,29.42,NNW,337,0.0,2.3,63,0.00,,,0.00,Rainwise IP-100,2013-03-15 07:49:00,
2013-03-15 03:54:00,15.0,8.0,29.42,NNW,337,1.4,2.3,64,0.00,,,0.00,Rainwise IP-100,2013-03-15 07:54:00,
2013-03-15 03:59:00,15.0,8.0,29.42,NNW,337,0.0,4.7,64,0.00,,,0.00,Rainwise IP-100,2013-03-15 07:59:00,
2013-03-15 04:04:00,15.1,8.0,29.42,NNW,337,1.4,3.5,64,0.00,,,0.00,Rainwise IP-100,2013-03-15 08:04:00,
2013-03-15 04:09:00,15.0,8.0,29.42,NNW,337,0.0,3.0,64,0.00,,,0.00,Rainwise IP-100,2013-03-15 08:09:00,
2013-03-15 04:14:00,14.8,8.0,29.42,ENE,67,1.9,4.7,65,0.00,,,0.00,Rainwise IP-100,2013-03-15 08:14:00,
2013-03-15 04:20:00,14.9,8.0,29.42,NNW,337,5.4,5.4,65,0.00,,,0.00,Rainwise IP-100,2013-03-15 08:20:00,
2013-03-15 04:25:00,15.1,8.0,29.42,NNW,337,2.3,7.7,65,0.00,,,0.00,Rainwise IP-100,2013-03-15 08:25:00,
2013-03-15 04:30:00,15.3,8.0,29.42,North,360,3.5,4.7,65,0.00,,,0.00,Rainwise IP-100,2013-03-15 08:30:00,
2013-03-15 04:35:00,15.3,8.0,29.42,NW,315,0.0,8.2,65,0.00,,,0.00,Rainwise IP-100,2013-03-15 08:35:00,
2013-03-15 04:40:00,15.4,8.0,29.42,NNW,337,2.6,5.8,65,0.00,,,0.00,Rainwise IP-100,2013-03-15 08:40:00,
2013-03-15 04:45:00,15.3,8.0,29.42,NNW,337,1.4,3.5,66,0.00,,,0.00,Rainwise IP-100,2013-03-15 08:45:00,
2013-03-15 04:50:00,15.0,8.0,29.42,NNW,337,1.9,3.3,66,0.00,,,0.00,Rainwise IP-100,2013-03-15 08:50:00,
2013-03-15 04:55:00,14.9,8.0,29.42,NNW,337,2.1,2.6,66,0.00,,,0.00,Rainwise IP-100,2013-03-15 08:55:00,
2013-03-15 05:00:00,14.9,8.0,29.42,North,360,4.2,5.4,67,0.00,,,0.00,Rainwise IP-100,2013-03-15 09:00:00,
2013-03-15 05:05:00,14.9,8.0,29.41,North,360,1.4,4.4,67,0.00,,,0.00,Rainwise IP-100,2013-03-15 09:05:00,
2013-03-15 05:10:00,15.0,8.0,29.42,NNW,337,0.0,7.2,67,0.00,,,0.00,Rainwise IP-100,2013-03-15 09:10:00,
2013-03-15 05:15:00,15.2,8.0,29.41,NNE,22,1.4,4.9,68,0.00,,,0.00,Rainwise IP-100,2013-03-15 09:15:00,
2013-03-15 05:20:00,15.3,8.0,29.42,NNE,22,1.6,1.9,68,0.00,,,0.00,Rainwise IP-100,2013-03-15 09:20:00,
2013-03-15 05:25:00,15.2,8.0,29.42,NNE,22,0.0,2.1,68,0.00,,,0.00,Rainwise IP-100,2013-03-15 09:25:00,
2013-03-15 05:31:00,15.0,8.0,29.41,NNE,22,0.0,1.2,69,0.00,,,0.00,Rainwise IP-100,2013-03-15 09:31:00,
2013-03-15 05:36:00,14.9,8.0,29.42,NE,45,1.9,3.5,69,0.00,,,0.00,Rainwise IP-100,2013-03-15 09:36:00,
2013-03-15 05:41:00,14.9,8.0,29.42,NE,45,1.9,3.3,69,0.00,,,0.00,Rainwise IP-100,2013-03-15 09:41:00,
2013-03-15 05:46:00,14.9,8.0,29.42,NE,45,0.0,4.4,69,0.00,,,0.00,Rainwise IP-100,2013-03-15 09:46:00,
2013-03-15 05:51:00,14.8,8.0,29.42,NE,45,0.0,2.6,69,0.00,,,0.00,Rainwise IP-100,2013-03-15 09:51:00,
2013-03-15 05:56:00,14.6,8.0,29.42,NE,45,0.0,0.0,70,0.00,,,0.00,Rainwise IP-100,2013-03-15 09:56:00,
2013-03-15 06:01:00,14.5,8.0,29.42,NE,45,0.0,0.0,70,0.00,,,0.00,Rainwise IP-100,2013-03-15 10:01:00,
2013-03-15 06:06:00,14.4,8.0,29.41,NE,45,0.0,0.0,71,0.00,,,0.00,Rainwise IP-100,2013-03-15 10:06:00,
2013-03-15 06:11:00,14.3,8.0,29.41,NE,45,0.0,0.0,72,0.00,,,0.00,Rainwise IP-100,2013-03-15 10:11:00,
2013-03-15 06:16:00,14.3,8.0,29.42,North,360,0.0,2.1,72,0.00,,,0.00,Rainwise IP-100,2013-03-15 10:16:00,
2013-03-15 06:21:00,14.1,8.0,29.41,North,360,0.0,0.0,72,0.00,,,0.00,Rainwise IP-100,2013-03-15 10:21:00,
2013-03-15 06:27:00,14.0,8.0,29.42,North,360,0.0,0.0,73,0.00,,,0.00,Rainwise IP-100,2013-03-15 10:27:00,
2013-03-15 06:32:00,13.9,8.0,29.41,North,360,1.2,1.4,73,0.00,,,0.00,Rainwise IP-100,2013-03-15 10:32:00,
2013-03-15 06:37:00,13.9,8.0,29.42,North,360,0.0,1.4,74,0.00,,,0.00,Rainwise IP-100,2013-03-15 10:37:00,
2013-03-15 06:42:00,14.0,8.0,29.42,North,360,0.0,1.4,73,0.00,,,0.00,Rainwise IP-100,2013-03-15 10:42:00,
2013-03-15 06:47:00,14.0,8.0,29.42,North,360,0.0,0.0,73,0.00,,,0.00,Rainwise IP-100,2013-03-15 10:47:00,
2013-03-15 06:52:00,14.0,8.0,29.42,North,360,2.8,2.8,73,0.00,,,0.00,Rainwise IP-100,2013-03-15 10:52:00,
2013-03-15 06:57:00,13.9,8.0,29.41,NNE,22,0.0,3.5,73,0.00,,,0.00,Rainwise IP-100,2013-03-15 10:57:00,
2013-03-15 07:02:00,13.9,8.0,29.42,NNE,22,0.0,0.0,73,0.00,,,0.00,Rainwise IP-100,2013-03-15 11:02:00,
2013-03-15 07:07:00,13.8,8.0,29.41,NNE,22,0.0,0.0,74,0.00,,,0.00,Rainwise IP-100,2013-03-15 11:07:00,
2013-03-15 07:12:00,13.9,8.0,29.42,NNE,22,0.0,0.0,74,0.00,,,0.00,Rainwise IP-100,2013-03-15 11:12:00,
2013-03-15 07:17:00,14.0,8.0,29.41,NNE,22,0.0,0.0,75,0.00,,,0.00,Rainwise IP-100,2013-03-15 11:17:00,
2013-03-15 07:22:00,14.0,8.0,29.41,NNE,22,0.0,0.0,75,0.00,,,0.00,Rainwise IP-100,2013-03-15 11:22:00,
2013-03-15 07:27:00,14.1,8.0,29.41,SSE,157,2.1,3.3,76,0.00,,,0.00,Rainwise IP-100,2013-03-15 11:27:00,
2013-03-15 07:32:00,14.3,8.0,29.41,ESE,112,2.8,3.3,76,0.00,,,0.00,Rainwise IP-100,2013-03-15 11:32:00,
2013-03-15 07:37:00,14.8,11.0,29.42,SSE,157,0.0,3.0,76,0.00,,,0.00,Rainwise IP-100,2013-03-15 11:37:00,
2013-03-15 07:43:00,15.3,11.0,29.41,South,180,0.0,2.1,76,0.00,,,0.00,Rainwise IP-100,2013-03-15 11:43:00,
2013-03-15 07:48:00,15.9,11.0,29.41,South,180,0.0,0.0,78,0.00,,,0.00,Rainwise IP-100,2013-03-15 11:48:00,
2013-03-15 07:53:00,16.9,14.0,29.41,South,180,0.0,0.0,82,0.00,,,0.00,Rainwise IP-100,2013-03-15 11:53:00,
2013-03-15 07:58:00,17.5,14.0,29.41,SE,135,0.0,0.0,84,0.00,,,0.00,Rainwise IP-100,2013-03-15 11:58:00,
2013-03-15 08:03:00,17.3,14.0,29.41,ENE,67,1.2,4.0,83,0.00,,,0.00,Rainwise IP-100,2013-03-15 12:03:00,
2013-03-15 08:08:00,17.3,14.0,29.41,ENE,67,1.4,1.6,83,0.00,,,0.00,Rainwise IP-100,2013-03-15 12:08:00,
2013-03-15 08:13:00,17.6,14.0,29.41,ENE,67,1.9,3.3,84,0.00,,,0.00,Rainwise IP-100,2013-03-15 12:13:00,
2013-03-15 08:18:00,17.7,14.0,29.41,East,90,2.6,3.5,83,0.00,,,0.00,Rainwise IP-100,2013-03-15 12:18:00,
2013-03-15 08:23:00,18.6,16.0,29.41,East,90,1.9,2.6,84,0.00,,,0.00,Rainwise IP-100,2013-03-15 12:23:00,
2013-03-15 08:28:00,19.6,18.0,29.41,ENE,67,2.6,3.0,87,0.00,,,0.00,Rainwise IP-100,2013-03-15 12:28:00,
2013-03-15 08:33:00,20.1,18.0,29.41,ENE,67,2.3,2.6,88,0.00,,,0.00,Rainwise IP-100,2013-03-15 12:33:00,
2013-03-15 08:38:00,19.5,16.0,29.41,NNE,22,4.4,6.1,83,0.00,,,0.00,Rainwise IP-100,2013-03-15 12:38:00,
2013-03-15 08:43:00,19.2,14.0,29.41,ENE,67,2.3,7.9,77,0.00,,,0.00,Rainwise IP-100,2013-03-15 12:43:00,
2013-03-15 08:48:00,20.1,14.0,29.41,NNE,22,6.8,6.8,76,0.00,,,0.00,Rainwise IP-100,2013-03-15 12:48:00,
2013-03-15 08:53:00,20.6,14.0,29.41,WNW,292,1.9,8.2,72,0.00,,,0.00,Rainwise IP-100,2013-03-15 12:53:00,
2013-03-15 08:59:00,21.3,11.0,29.41,WNW,292,4.9,8.2,66,0.00,,,0.00,Rainwise IP-100,2013-03-15 12:59:00,
2013-03-15 09:04:00,21.5,14.0,29.41,North,360,2.3,6.8,66,0.00,,,0.00,Rainwise IP-100,2013-03-15 13:04:00,
2013-03-15 09:09:00,21.1,11.0,29.40,North,360,6.3,9.6,64,0.00,,,0.00,Rainwise IP-100,2013-03-15 13:09:00,
2013-03-15 09:14:00,21.1,11.0,29.40,NNE,22,7.5,11.4,62,0.00,,,0.00,Rainwise IP-100,2013-03-15 13:14:00,
2013-03-15 09:19:00,21.4,8.0,29.39,NNE,22,2.6,9.1,58,0.00,,,0.00,Rainwise IP-100,2013-03-15 13:19:00,
2013-03-15 09:24:00,21.5,11.0,29.39,ENE,67,3.3,7.2,57,0.00,,,0.00,Rainwise IP-100,2013-03-15 13:24:00,
2013-03-15 09:29:00,21.9,11.0,29.39,NNE,22,1.4,7.2,56,0.00,,,0.00,Rainwise IP-100,2013-03-15 13:29:00,
2013-03-15 09:34:00,22.6,11.0,29.39,ESE,112,0.0,3.3,58,0.00,,,0.00,Rainwise IP-100,2013-03-15 13:34:00,
2013-03-15 09:39:00,23.6,14.0,29.38,SSE,157,2.6,6.8,62,0.00,,,0.00,Rainwise IP-100,2013-03-15 13:39:00,
2013-03-15 09:44:00,24.2,14.0,29.39,NW,315,2.8,4.9,62,0.00,,,0.00,Rainwise IP-100,2013-03-15 13:44:00,
2013-03-15 09:49:00,24.7,16.0,29.39,NNW,337,6.1,6.3,61,0.00,,,0.00,Rainwise IP-100,2013-03-15 13:49:00,
2013-03-15 09:54:00,24.6,14.0,29.38,NE,45,2.1,7.5,60,0.00,,,0.00,Rainwise IP-100,2013-03-15 13:54:00,
2013-03-15 09:59:00,23.8,11.0,29.38,NNE,22,0.0,8.2,57,0.00,,,0.00,Rainwise IP-100,2013-03-15 13:59:00,
2013-03-15 10:04:00,24.5,14.0,29.38,WSW,247,0.0,5.8,57,0.00,,,0.00,Rainwise IP-100,2013-03-15 14:04:00,
2013-03-15 10:09:00,24.9,14.0,29.37,West,270,1.9,6.8,57,0.00,,,0.00,Rainwise IP-100,2013-03-15 14:09:00,
2013-03-15 10:15:00,24.9,14.0,29.37,NNW,337,7.2,7.5,55,0.00,,,0.00,Rainwise IP-100,2013-03-15 14:15:00,
2013-03-15 10:20:00,25.1,11.0,29.36,NNE,22,3.5,10.3,52,0.00,,,0.00,Rainwise IP-100,2013-03-15 14:20:00,
2013-03-15 10:25:00,24.5,11.0,29.36,ENE,67,4.4,8.2,49,0.00,,,0.00,Rainwise IP-100,2013-03-15 14:25:00,
2013-03-15 10:30:00,24.5,11.0,29.36,East,90,4.2,8.4,49,0.00,,,0.00,Rainwise IP-100,2013-03-15 14:30:00,
2013-03-15 10:35:00,25.0,11.0,29.36,SW,225,7.7,9.3,50,0.00,,,0.00,Rainwise IP-100,2013-03-15 14:35:00,
2013-03-15 10:40:00,25.4,11.0,29.36,SSW,202,5.1,9.1,48,0.00,,,0.00,Rainwise IP-100,2013-03-15 14:40:00,
2013-03-15 10:45:00,25.3,8.0,29.35,SE,135,3.3,10.3,46,0.00,,,0.00,Rainwise IP-100,2013-03-15 14:45:00,
2013-03-15 10:50:00,26.0,8.0,29.35,ESE,112,0.0,7.2,46,0.00,,,0.00,Rainwise IP-100,2013-03-15 14:50:00,
2013-03-15 10:55:00,26.4,8.0,29.35,South,180,2.3,10.3,45,0.00,,,0.00,Rainwise IP-100,2013-03-15 14:55:00,
2013-03-15 11:00:00,26.5,11.0,29.34,NNE,22,7.7,10.7,44,0.00,,,0.00,Rainwise IP-100,2013-03-15 15:00:00,
2013-03-15 11:05:00,26.4,8.0,29.34,NNE,22,6.1,9.6,43,0.00,,,0.00,Rainwise IP-100,2013-03-15 15:05:00,
2013-03-15 11:10:00,26.5,8.0,29.34,SSW,202,3.0,7.2,43,0.00,,,0.00,Rainwise IP-100,2013-03-15 15:10:00,
2013-03-15 11:15:00,27.2,8.0,29.34,NNE,22,7.2,10.3,43,0.00,,,0.00,Rainwise IP-100,2013-03-15 15:15:00,
2013-03-15 11:20:00,27.8,8.0,29.33,East,90,1.2,10.3,43,0.00,,,0.00,Rainwise IP-100,2013-03-15 15:20:00,
2013-03-15 11:25:00,28.4,11.0,29.33,ENE,67,1.4,7.5,45,0.00,,,0.00,Rainwise IP-100,2013-03-15 15:25:00,
2013-03-15 11:31:00,28.7,11.0,29.33,ESE,112,4.9,6.8,45,0.00,,,0.00,Rainwise IP-100,2013-03-15 15:31:00,
2013-03-15 11:36:00,27.8,11.0,29.33,ESE,112,4.2,7.7,44,0.00,,,0.00,Rainwise IP-100,2013-03-15 15:36:00,
2013-03-15 11:41:00,27.1,11.0,29.32,ENE,67,0.0,5.8,44,0.00,,,0.00,Rainwise IP-100,2013-03-15 15:41:00,
2013-03-15 11:46:00,28.5,11.0,29.32,SSW,202,7.5,9.3,44,0.00,,,0.00,Rainwise IP-100,2013-03-15 15:46:00,
2013-03-15 11:51:00,29.1,11.0,29.31,ENE,67,2.3,8.2,43,0.00,,,0.00,Rainwise IP-100,2013-03-15 15:51:00,
2013-03-15 11:56:00,29.4,11.0,29.31,SSE,157,0.0,6.8,43,0.00,,,0.00,Rainwise IP-100,2013-03-15 15:56:00,
2013-03-15 12:01:00,29.8,11.0,29.31,SSE,157,3.0,6.8,43,0.00,,,0.00,Rainwise IP-100,2013-03-15 16:01:00,
2013-03-15 12:06:00,30.2,11.0,29.31,SSE,157,2.8,6.5,43,0.00,,,0.00,Rainwise IP-100,2013-03-15 16:06:00,
2013-03-15 12:12:00,30.7,11.0,29.30,NW,315,2.1,5.4,42,0.00,,,0.00,Rainwise IP-100,2013-03-15 16:12:00,
2013-03-15 12:17:00,31.2,11.0,29.30,SSW,202,2.6,4.7,42,0.00,,,0.00,Rainwise IP-100,2013-03-15 16:17:00,
2013-03-15 12:22:00,32.2,11.0,29.29,SSE,157,3.7,8.2,41,0.00,,,0.00,Rainwise IP-100,2013-03-15 16:22:00,
2013-03-15 12:27:00,32.5,14.0,29.29,SSW,202,1.2,4.7,40,0.00,,,0.00,Rainwise IP-100,2013-03-15 16:27:00,
2013-03-15 12:32:00,32.6,14.0,29.28,SSE,157,5.4,6.8,40,0.00,,,0.00,Rainwise IP-100,2013-03-15 16:32:00,
2013-03-15 12:37:00,32.2,11.0,29.28,SSW,202,2.1,8.6,38,0.00,,,0.00,Rainwise IP-100,2013-03-15 16:37:00,
2013-03-15 12:42:00,31.6,11.0,29.28,ESE,112,1.9,8.4,37,0.00,,,0.00,Rainwise IP-100,2013-03-15 16:42:00,
2013-03-15 12:47:00,32.0,11.0,29.27,SSW,202,4.2,5.6,37,0.00,,,0.00,Rainwise IP-100,2013-03-15 16:47:00,
2013-03-15 12:52:00,32.5,11.0,29.27,SSW,202,8.9,12.6,37,0.00,,,0.00,Rainwise IP-100,2013-03-15 16:52:00,
2013-03-15 12:57:00,32.1,8.0,29.27,SSE,157,2.8,12.4,36,0.00,,,0.00,Rainwise IP-100,2013-03-15 16:57:00,
2013-03-15 13:02:00,32.1,8.0,29.26,SSW,202,5.6,7.7,35,0.00,,,0.00,Rainwise IP-100,2013-03-15 17:02:00,
2013-03-15 13:07:00,32.5,11.0,29.26,WNW,292,1.4,10.5,35,0.00,,,0.00,Rainwise IP-100,2013-03-15 17:07:00,
2013-03-15 13:13:00,32.7,11.0,29.25,SSW,202,9.3,13.1,35,0.00,,,0.00,Rainwise IP-100,2013-03-15 17:13:00,
2013-03-15 13:18:00,32.7,11.0,29.25,SSE,157,7.0,11.4,35,0.00,,,0.00,Rainwise IP-100,2013-03-15 17:18:00,
2013-03-15 13:23:00,32.6,11.0,29.25,SE,135,8.9,11.0,35,0.00,,,0.00,Rainwise IP-100,2013-03-15 17:23:00,
2013-03-15 13:28:00,32.3,8.0,29.24,SSW,202,4.2,12.8,35,0.00,,,0.00,Rainwise IP-100,2013-03-15 17:28:00,
2013-03-15 13:33:00,32.2,8.0,29.24,SSW,202,9.8,12.8,35,0.00,,,0.00,Rainwise IP-100,2013-03-15 17:33:00,
2013-03-15 13:38:00,32.1,8.0,29.24,ESE,112,2.6,14.5,35,0.00,,,0.00,Rainwise IP-100,2013-03-15 17:38:00,
2013-03-15 13:43:00,32.3,8.0,29.23,SSW,202,3.0,6.8,35,0.00,,,0.00,Rainwise IP-100,2013-03-15 17:43:00,
2013-03-15 13:48:00,32.6,11.0,29.23,South,180,2.6,11.2,36,0.00,,,0.00,Rainwise IP-100,2013-03-15 17:48:00,
2013-03-15 13:54:00,32.8,11.0,29.23,SSW,202,8.2,12.8,35,0.00,,,0.00,Rainwise IP-100,2013-03-15 17:54:00,
2013-03-15 13:59:00,32.8,11.0,29.23,SW,225,3.5,12.8,35,0.00,,,0.00,Rainwise IP-100,2013-03-15 17:59:00,
2013-03-15 14:04:00,33.1,11.0,29.22,SSW,202,3.7,9.1,36,0.00,,,0.00,Rainwise IP-100,2013-03-15 18:04:00,
2013-03-15 14:09:00,33.2,11.0,29.21,SSW,202,7.5,10.5,35,0.00,,,0.00,Rainwise IP-100,2013-03-15 18:09:00,
2013-03-15 14:14:00,33.3,11.0,29.21,ESE,112,2.6,8.9,35,0.00,,,0.00,Rainwise IP-100,2013-03-15 18:14:00,
2013-03-15 14:19:00,33.3,11.0,29.21,SSE,157,1.2,10.7,35,0.00,,,0.00,Rainwise IP-100,2013-03-15 18:19:00,
2013-03-15 14:24:00,33.4,11.0,29.21,SSW,202,3.5,7.0,36,0.00,,,0.00,Rainwise IP-100,2013-03-15 18:24:00,
2013-03-15 14:29:00,33.4,11.0,29.20,WSW,247,4.2,11.9,38,0.00,,,0.00,Rainwise IP-100,2013-03-15 18:29:00,
2013-03-15 14:34:00,33.5,14.0,29.20,SSW,202,11.2,17.5,40,0.00,,,0.00,Rainwise IP-100,2013-03-15 18:34:00,
2013-03-15 14:39:00,33.4,14.0,29.20,SSW,202,12.8,16.1,42,0.00,,,0.00,Rainwise IP-100,2013-03-15 18:39:00,
2013-03-15 14:44:00,33.0,14.0,29.20,SSW,202,2.1,18.2,44,0.00,,,0.00,Rainwise IP-100,2013-03-15 18:44:00,
2013-03-15 14:49:00,33.1,16.0,29.20,West,270,4.0,8.6,45,0.00,,,0.00,Rainwise IP-100,2013-03-15 18:49:00,
2013-03-15 14:54:00,33.4,16.0,29.20,WSW,247,5.1,11.9,45,0.00,,,0.00,Rainwise IP-100,2013-03-15 18:54:00,
2013-03-15 14:59:00,33.6,16.0,29.19,SSW,202,8.2,14.7,44,0.00,,,0.00,Rainwise IP-100,2013-03-15 18:59:00,
2013-03-15 15:04:00,33.7,16.0,29.19,SSE,157,6.5,13.1,44,0.00,,,0.00,Rainwise IP-100,2013-03-15 19:04:00,
2013-03-15 15:10:00,33.8,16.0,29.19,SSW,202,4.0,14.0,44,0.00,,,0.00,Rainwise IP-100,2013-03-15 19:10:00,
2013-03-15 15:15:00,34.0,16.0,29.18,SSE,157,10.0,14.5,43,0.00,,,0.00,Rainwise IP-100,2013-03-15 19:15:00,
2013-03-15 15:20:00,34.1,16.0,29.18,SSW,202,5.4,15.6,43,0.00,,,0.00,Rainwise IP-100,2013-03-15 19:20:00,
2013-03-15 15:25:00,34.1,16.0,29.18,SSE,157,6.1,10.3,43,0.00,,,0.00,Rainwise IP-100,2013-03-15 19:25:00,
2013-03-15 15:30:00,34.3,16.0,29.18,South,180,7.9,11.7,44,0.00,,,0.00,Rainwise IP-100,2013-03-15 19:30:00,
2013-03-15 15:35:00,34.5,16.0,29.18,SW,225,10.0,10.0,44,0.00,,,0.00,Rainwise IP-100,2013-03-15 19:35:00,
2013-03-15 15:40:00,34.5,16.0,29.18,WSW,247,5.4,11.4,44,0.00,,,0.00,Rainwise IP-100,2013-03-15 19:40:00,
2013-03-15 15:45:00,34.5,16.0,29.18,SSE,157,6.3,14.2,43,0.00,,,0.00,Rainwise IP-100,2013-03-15 19:45:00,
2013-03-15 15:50:00,34.7,16.0,29.17,SSW,202,5.4,18.0,43,0.00,,,0.00,Rainwise IP-100,2013-03-15 19:50:00,
2013-03-15 15:55:00,34.8,16.0,29.17,SSE,157,5.6,13.3,43,0.00,,,0.00,Rainwise IP-100,2013-03-15 19:55:00,
2013-03-15 16:00:00,34.8,16.0,29.17,SW,225,6.8,16.3,43,0.00,,,0.00,Rainwise IP-100,2013-03-15 20:00:00,
2013-03-15 16:05:00,34.8,16.0,29.17,WSW,247,5.1,11.7,43,0.00,,,0.00,Rainwise IP-100,2013-03-15 20:05:00,
2013-03-15 16:10:00,34.8,16.0,29.17,SSW,202,6.3,19.4,43,0.00,,,0.00,Rainwise IP-100,2013-03-15 20:10:00,
2013-03-15 16:15:00,34.8,16.0,29.17,SSW,202,6.5,11.0,43,0.00,,,0.00,Rainwise IP-100,2013-03-15 20:15:00,
2013-03-15 16:20:00,34.8,16.0,29.17,SSW,202,7.5,11.2,44,0.00,,,0.00,Rainwise IP-100,2013-03-15 20:20:00,
2013-03-15 16:26:00,34.9,16.0,29.17,SSW,202,6.5,15.9,44,0.00,,,0.00,Rainwise IP-100,2013-03-15 20:26:00,
2013-03-15 16:31:00,34.9,16.0,29.16,SSW,202,11.2,16.1,46,0.00,,,0.00,Rainwise IP-100,2013-03-15 20:31:00,
2013-03-15 16:36:00,34.8,18.0,29.15,SW,225,14.2,21.5,48,0.00,,,0.00,Rainwise IP-100,2013-03-15 20:36:00,
2013-03-15 16:41:00,34.9,18.0,29.16,South,180,10.3,17.7,48,0.00,,,0.00,Rainwise IP-100,2013-03-15 20:41:00,
2013-03-15 16:46:00,35.1,18.0,29.16,SSW,202,0.0,12.6,49,0.00,,,0.00,Rainwise IP-100,2013-03-15 20:46:00,
2013-03-15 16:51:00,35.1,18.0,29.16,WSW,247,9.1,13.3,49,0.00,,,0.00,Rainwise IP-100,2013-03-15 20:51:00,
2013-03-15 16:56:00,35.0,18.0,29.15,SSW,202,3.5,14.9,50,0.00,,,0.00,Rainwise IP-100,2013-03-15 20:56:00,
2013-03-15 17:01:00,34.9,18.0,29.16,WSW,247,9.3,9.8,51,0.00,,,0.00,Rainwise IP-100,2013-03-15 21:01:00,
2013-03-15 17:07:00,35.0,18.0,29.16,SSW,202,7.0,12.8,51,0.00,,,0.00,Rainwise IP-100,2013-03-15 21:07:00,
2013-03-15 17:12:00,34.9,18.0,29.15,SSE,157,4.7,12.8,52,0.00,,,0.00,Rainwise IP-100,2013-03-15 21:12:00,
2013-03-15 17:17:00,34.7,21.0,29.15,South,180,9.6,14.0,53,0.00,,,0.00,Rainwise IP-100,2013-03-15 21:17:00,
2013-03-15 17:22:00,34.6,21.0,29.16,South,180,6.8,13.8,54,0.00,,,0.00,Rainwise IP-100,2013-03-15 21:22:00,
2013-03-15 17:27:00,34.5,21.0,29.16,SSW,202,6.3,10.3,55,0.00,,,0.00,Rainwise IP-100,2013-03-15 21:27:00,
2013-03-15 17:32:00,34.5,21.0,29.16,SSW,202,11.4,11.4,56,0.00,,,0.00,Rainwise IP-100,2013-03-15 21:32:00,
2013-03-15 17:37:00,34.4,21.0,29.15,SSW,202,7.0,13.5,57,0.00,,,0.00,Rainwise IP-100,2013-03-15 21:37:00,
2013-03-15 17:42:00,34.3,21.0,29.15,SSE,157,0.0,11.4,57,0.00,,,0.00,Rainwise IP-100,2013-03-15 21:42:00,
2013-03-15 17:47:00,34.4,23.0,29.15,South,180,5.4,7.7,58,0.00,,,0.00,Rainwise IP-100,2013-03-15 21:47:00,
2013-03-15 17:52:00,34.5,23.0,29.15,SSW,202,3.5,7.9,58,0.00,,,0.00,Rainwise IP-100,2013-03-15 21:52:00,
2013-03-15 17:57:00,34.4,23.0,29.15,SSW,202,4.9,9.1,59,0.00,,,0.00,Rainwise IP-100,2013-03-15 21:57:00,
2013-03-15 18:02:00,34.2,23.0,29.15,SSW,202,4.4,8.9,60,0.00,,,0.00,Rainwise IP-100,2013-03-15 22:02:00,
2013-03-15 18:07:00,34.0,23.0,29.15,SSW,202,6.3,8.2,60,0.00,,,0.00,Rainwise IP-100,2013-03-15 22:07:00,
2013-03-15 18:12:00,33.9,23.0,29.15,SSW,202,4.4,13.1,61,0.00,,,0.00,Rainwise IP-100,2013-03-15 22:12:00,
2013-03-15 18:18:00,33.7,23.0,29.15,SSW,202,4.4,6.1,61,0.00,,,0.00,Rainwise IP-100,2013-03-15 22:18:00,
2013-03-15 18:23:00,33.5,23.0,29.15,SW,225,4.4,4.9,62,0.00,,,0.00,Rainwise IP-100,2013-03-15 22:23:00,
2013-03-15 18:28:00,33.4,23.0,29.15,SSW,202,4.9,9.1,63,0.00,,,0.00,Rainwise IP-100,2013-03-15 22:28:00,
2013-03-15 18:33:00,33.4,23.0,29.15,SSW,202,2.8,6.8,63,0.00,,,0.00,Rainwise IP-100,2013-03-15 22:33:00,
2013-03-15 18:38:00,33.3,23.0,29.16,SSE,157,3.3,7.2,64,0.00,,,0.00,Rainwise IP-100,2013-03-15 22:38:00,
2013-03-15 18:43:00,33.2,23.0,29.16,SSW,202,3.0,7.7,64,0.00,,,0.00,Rainwise IP-100,2013-03-15 22:43:00,
2013-03-15 18:48:00,33.2,23.0,29.16,SSW,202,9.1,14.2,65,0.00,,,0.00,Rainwise IP-100,2013-03-15 22:48:00,
2013-03-15 18:53:00,33.2,23.0,29.16,SSW,202,8.2,10.7,65,0.00,,,0.00,Rainwise IP-100,2013-03-15 22:53:00,
2013-03-15 18:58:00,33.1,24.0,29.16,SSW,202,3.0,12.6,66,0.00,,,0.00,Rainwise IP-100,2013-03-15 22:58:00,
2013-03-15 19:03:00,33.0,24.0,29.16,SW,225,4.9,7.2,67,0.00,,,0.00,Rainwise IP-100,2013-03-15 23:03:00,
2013-03-15 19:08:00,32.9,24.0,29.16,SSW,202,8.2,8.4,68,0.00,,,0.00,Rainwise IP-100,2013-03-15 23:08:00,
2013-03-15 19:13:00,32.8,24.0,29.16,SSW,202,5.6,8.6,69,0.00,,,0.00,Rainwise IP-100,2013-03-15 23:13:00,
2013-03-15 19:18:00,32.7,24.0,29.15,WSW,247,5.4,12.1,70,0.00,,,0.00,Rainwise IP-100,2013-03-15 23:18:00,
2013-03-15 19:23:00,32.4,24.0,29.15,South,180,3.3,9.6,72,0.00,,,0.00,Rainwise IP-100,2013-03-15 23:23:00,
2013-03-15 19:29:00,32.0,24.0,29.16,SW,225,2.1,7.5,74,0.00,,,0.00,Rainwise IP-100,2013-03-15 23:29:00,
2013-03-15 19:34:00,31.8,26.0,29.16,SSW,202,4.0,7.9,76,0.00,,,0.00,Rainwise IP-100,2013-03-15 23:34:00,
2013-03-15 19:39:00,31.5,26.0,29.16,SSW,202,3.0,6.1,77,0.00,,,0.00,Rainwise IP-100,2013-03-15 23:39:00,
2013-03-15 19:44:00,31.3,24.0,29.16,SSW,202,6.8,7.7,78,0.00,,,0.00,Rainwise IP-100,2013-03-15 23:44:00,
2013-03-15 19:49:00,31.2,24.0,29.16,SSW,202,4.0,7.9,79,0.00,,,0.00,Rainwise IP-100,2013-03-15 23:49:00,
2013-03-15 19:54:00,31.2,26.0,29.16,SSW,202,2.8,4.7,80,0.00,,,0.00,Rainwise IP-100,2013-03-15 23:54:00,
2013-03-15 19:59:00,31.2,26.0,29.16,SSW,202,1.9,3.5,80,0.00,,,0.00,Rainwise IP-100,2013-03-15 23:59:00,
2013-03-15 20:04:00,31.1,26.0,29.16,SSW,202,2.1,3.5,81,0.00,,,0.00,Rainwise IP-100,2013-03-16 00:04:00,
2013-03-15 20:09:00,31.0,26.0,29.16,South,180,2.6,3.3,82,0.00,,,0.00,Rainwise IP-100,2013-03-16 00:09:00,
2013-03-15 20:14:00,31.0,26.0,29.16,South,180,1.2,2.8,82,0.00,,,0.00,Rainwise IP-100,2013-03-16 00:14:00,
2013-03-15 20:19:00,30.7,26.0,29.16,South,180,0.0,1.6,83,0.00,,,0.00,Rainwise IP-100,2013-03-16 00:19:00,
2013-03-15 20:24:00,30.4,26.0,29.16,South,180,1.6,1.6,83,0.00,,,0.00,Rainwise IP-100,2013-03-16 00:24:00,
2013-03-15 20:29:00,30.1,26.0,29.15,SSW,202,3.3,3.3,83,0.00,,,0.00,Rainwise IP-100,2013-03-16 00:29:00,
2013-03-15 20:34:00,30.1,26.0,29.16,SSW,202,2.1,3.7,85,0.00,,,0.00,Rainwise IP-100,2013-03-16 00:34:00,
2013-03-15 20:39:00,30.2,26.0,29.16,SSW,202,1.2,3.3,85,0.00,,,0.00,Rainwise IP-100,2013-03-16 00:39:00,
2013-03-15 20:45:00,30.3,28.0,29.16,SSW,202,0.0,1.6,86,0.00,,,0.00,Rainwise IP-100,2013-03-16 00:45:00,
2013-03-15 20:50:00,30.3,28.0,29.16,SSW,202,0.0,2.3,86,0.00,,,0.00,Rainwise IP-100,2013-03-16 00:50:00,
2013-03-15 20:55:00,30.3,28.0,29.15,South,180,1.4,1.9,86,0.00,,,0.00,Rainwise IP-100,2013-03-16 00:55:00,
2013-03-15 21:00:00,30.4,28.0,29.16,South,180,0.0,2.3,87,0.00,,,0.00,Rainwise IP-100,2013-03-16 01:00:00,
2013-03-15 21:05:00,30.3,28.0,29.17,WNW,292,2.1,2.6,87,0.00,,,0.00,Rainwise IP-100,2013-03-16 01:05:00,
2013-03-15 21:10:00,30.2,28.0,29.17,WNW,292,1.9,2.6,87,0.00,,,0.00,Rainwise IP-100,2013-03-16 01:10:00,
2013-03-15 21:15:00,30.2,28.0,29.17,NNW,337,2.1,3.5,88,0.00,,,0.00,Rainwise IP-100,2013-03-16 01:15:00,
2013-03-15 21:20:00,30.3,28.0,29.17,NNW,337,0.0,3.3,89,0.00,,,0.00,Rainwise IP-100,2013-03-16 01:20:00,
2013-03-15 21:25:00,30.2,28.0,29.18,NNW,337,0.0,1.2,89,0.00,,,0.00,Rainwise IP-100,2013-03-16 01:25:00,
2013-03-15 21:30:00,30.1,28.0,29.18,NNW,337,1.9,1.9,90,0.00,,,0.00,Rainwise IP-100,2013-03-16 01:30:00,
2013-03-15 21:35:00,30.1,28.0,29.20,NNE,22,7.5,7.5,91,0.00,,,0.00,Rainwise IP-100,2013-03-16 01:35:00,
2013-03-15 21:40:00,29.8,29.0,29.20,North,360,8.2,15.4,92,0.00,,,0.00,Rainwise IP-100,2013-03-16 01:40:00,
2013-03-15 21:45:00,29.2,28.0,29.21,NNE,22,12.1,14.9,93,0.00,,,0.00,Rainwise IP-100,2013-03-16 01:45:00,
2013-03-15 21:50:00,28.8,28.0,29.21,NNE,22,3.3,13.8,93,0.00,,,0.00,Rainwise IP-100,2013-03-16 01:50:00,
2013-03-15 21:55:00,28.6,28.0,29.20,NE,45,2.1,12.8,94,0.00,,,0.00,Rainwise IP-100,2013-03-16 01:55:00,
2013-03-15 22:01:00,28.4,26.0,29.20,NNE,22,8.2,12.4,93,0.00,,,0.00,Rainwise IP-100,2013-03-16 02:01:00,
2013-03-15 22:06:00,28.2,26.0,29.21,NE,45,3.3,13.8,93,0.00,,,0.00,Rainwise IP-100,2013-03-16 02:06:00,
2013-03-15 22:11:00,28.1,26.0,29.21,North,360,6.3,12.1,92,0.00,,,0.00,Rainwise IP-100,2013-03-16 02:11:00,
2013-03-15 22:16:00,28.0,26.0,29.21,NNW,337,6.5,15.4,92,0.00,,,0.00,Rainwise IP-100,2013-03-16 02:16:00,
2013-03-15 22:21:00,28.1,26.0,29.22,NNE,22,6.5,15.2,90,0.00,,,0.00,Rainwise IP-100,2013-03-16 02:21:00,
2013-03-15 22:26:00,28.1,24.0,29.23,NNW,337,1.6,7.2,88,0.00,,,0.00,Rainwise IP-100,2013-03-16 02:26:00,
2013-03-15 22:31:00,27.9,24.0,29.23,NNW,337,4.7,6.8,87,0.00,,,0.00,Rainwise IP-100,2013-03-16 02:31:00,
2013-03-15 22:36:00,27.7,24.0,29.23,NNE,22,0.0,11.7,86,0.00,,,0.00,Rainwise IP-100,2013-03-16 02:36:00,
2013-03-15 22:41:00,27.6,24.0,29.23,NNE,22,4.0,8.4,85,0.00,,,0.00,Rainwise IP-100,2013-03-16 02:41:00,
2013-03-15 22:47:00,27.5,23.0,29.23,NNE,22,7.7,8.2,83,0.00,,,0.00,Rainwise IP-100,2013-03-16 02:47:00,
2013-03-15 22:52:00,27.3,23.0,29.24,North,360,2.1,7.7,83,0.00,,,0.00,Rainwise IP-100,2013-03-16 02:52:00,
2013-03-15 22:57:00,26.9,23.0,29.24,North,360,1.9,6.1,83,0.00,,,0.00,Rainwise IP-100,2013-03-16 02:57:00,
2013-03-15 23:02:00,26.7,23.0,29.24,NNE,22,3.5,5.6,83,0.00,,,0.00,Rainwise IP-100,2013-03-16 03:02:00,
2013-03-15 23:07:00,26.6,23.0,29.24,NNW,337,2.6,4.4,83,0.00,,,0.00,Rainwise IP-100,2013-03-16 03:07:00,
2013-03-15 23:12:00,26.6,23.0,29.25,NNE,22,1.2,5.6,83,0.00,,,0.00,Rainwise IP-100,2013-03-16 03:12:00,
2013-03-15 23:17:00,26.6,23.0,29.25,North,360,0.0,4.4,83,0.00,,,0.00,Rainwise IP-100,2013-03-16 03:17:00,
2013-03-15 23:22:00,26.7,23.0,29.25,ENE,67,0.0,3.3,83,0.00,,,0.00,Rainwise IP-100,2013-03-16 03:22:00,
2013-03-15 23:27:00,26.5,23.0,29.25,WSW,247,0.0,2.3,83,0.00,,,0.00,Rainwise IP-100,2013-03-16 03:27:00,
2013-03-15 23:33:00,26.2,23.0,29.25,WSW,247,0.0,0.0,84,0.00,,,0.00,Rainwise IP-100,2013-03-16 03:33:00,
2013-03-15 23:38:00,26.1,23.0,29.26,NNW,337,0.0,4.9,84,0.00,,,0.00,Rainwise IP-100,2013-03-16 03:38:00,
2013-03-15 23:43:00,26.0,23.0,29.26,NNW,337,1.2,1.6,84,0.00,,,0.00,Rainwise IP-100,2013-03-16 03:43:00,
2013-03-15 23:48:00,25.8,23.0,29.26,WNW,292,0.0,1.4,85,0.00,,,0.00,Rainwise IP-100,2013-03-16 03:48:00,
2013-03-15 23:53:00,25.7,23.0,29.26,SW,225,3.0,3.5,85,0.00,,,0.00,Rainwise IP-100,2013-03-16 03:53:00,
2013-03-15 23:58:00,25.7,23.0,29.26,SW,225,1.9,3.3,85,0.00,,,0.00,Rainwise IP-100,2013-03-16 03:58:00,